Погода Островное

Погода Островное : погода сейчас, прогноз погоды и архив. Всё, что Вы хотите узнать о погоде Островное!

Поиск расширенной информации на нашем сайте:

Другие новости

Новости СМИ2

Главная страница сайта

Новости сайта

03.07.2017

Напоминаем, что на нашем специализированном сайте Метеоцентр.Азия вы можете получить высокодетализированные автоматические прогнозы погоды по пунктам России, СНГ и мира в авиационном формате (включающие направление и скорость ветра, видимость, явления погоды, количество и форму облачности, нижнюю и верхнюю границу облачности).

Рекомендуем: стеклянные торговые витрины

Погода Островное - сегодня

Время (UTC), дата Ветер
(°,м/с) 
Видим.   Явления Облачность Т
(°С)
Тd
(°С)
f(%) Тe
(°С)
Pmin
(гПа)
dP
(гПа)
Po
(мм)
O2
(г/м3)
Тmin Tmax R s Состояние
почвы
09 20.08.17 300 (СЗ) 2{03}  20000 м  в посл. час ливневой дождь  10/8 300 м кучево-дожд., средняя 
[Cb cap|Ac As]
+11 +10.4 96 +13  1002.4  0.3  743  286    +16.9     
12 20.08.17 260 (З) 5{10}  20000 м  {ливн. осадки}  10/8 600 м кучево-дожд., средняя 
[Cb cap|Ac As]
+9.8 +8.4 91 +9  1004.6  2.2  745  288           
15 20.08.17 250 (З) 6{11}  20000 м    9/9 300 м кучево-дожд. 
[Cb cap]
+9.2 +6.7 84 +7  1007.1  2.4  747  290           
18 20.08.17 250 (З) 7{12}  20000 м  {ливн. осадки}  10/8 300 м кучево-дожд., средняя 
[Cb cap|Ac As]
+9.6 +6.5 81 +8  1008.3  1.2  748  290           
21 20.08.17 260 (З) 4{12}  20000 м    9/9 300 м кучево-дожд. 
[Cb cap]
+9.4 +5.9 79 +8  1010.4  749  291  +8.9    0.5    мокрая 
00 21.08.17 250 (З) 4{10}  20000 м    9/9 600 м кучево-дожд. 
[Cb cap]
+11.3 +5.9 69 +11  1012  -1.7  750  289           
03 21.08.17 270 (З) 3{08}  20000 м    9/8 600 м кучево-дожд., верхняя 
[Cb cap|Ci fib]
+13.8 +6.8 63 +14  1012.2  0.3  751  287           
06 21.08.17 260 (З) 5{07}  20000 м  в посл. час ливневой дождь  9/9 600 м кучево-дожд. 
[Cb cap]
+11.4 +7.4 76 +10  1013  0.7  751  289           
09 21.08.17 270 (З) 3{07}  20000 м  в посл. час ливневой дождь  10/10 600 м кучево-дожд. 
[Cb cap]
+9.4 +7.7 89 +9  1014.3  1.2  752  292    +14.8     
12 21.08.17 320 (СЗ) 2{07}  20000 м  в посл. час ливневой дождь  10/10 600 м кучево-дожд. 
[Cb cap]
+7.8 +6.7 93 +8  1015.6  1.2  753  294           
15 21.08.17 280 (З) 2{05}  20000 м    8/8 600 м кучево-дожд. 
[Cb cap]
+6.2 +5.3 94 +6  1016.6  754  296           
18 21.08.17 тихо () {08}  20000 м    9/9 600 м 
[Sc]
+5.6 +5.1 97 +6  1017.6  0.9  754  297           
21 21.08.17 320 (СЗ) 2{03}  20000 м    10/10 300 м 
[St]
+7.7 +5.5 86 +8  1017.9  0.4  755  295  +5.4    0.1    влажная 
00 22.08.17 320 (СЗ) 2{05}  20000 м    9/9 600 м кучево-дожд. 
[Cb cap]
+9.1 +4.1 71 +9  1017.7  -0.1  755  294           
03 22.08.17 310 (СЗ) 2{05}  20000 м    9/9 600 м кучево-дожд., средняя 
[Cb cap|Ac trans]
+10.8 +3 59 +11  1016.4  -1.2  754  292           
06 22.08.17 290 (З) 1{04}  20000 м    9/8 600 м кучево-дожд., средняя 
[Cb cap|Ac trans]
+11 +3.6 60 +12  1015.3  -1.1  753  291           
09 22.08.17 190 (Ю) 1{02}  20000 м    6/3 600 м средняя 
[Sc|Ac trans]
+8.6 +4.5 75 +10  1014.5  -0.9  752  293    +11.2       
12 22.08.17 130 (ЮВ) 1{03}  20000 м    3/3 600 м 
[Sc]
+2.1 +1.1 93 +3  1014.4  -0.5  752  300           
15 22.08.17 280 (З) 1{02}  20000 м    4/3 600 м средняя 
[Sc|Ac trans]
+0.4 +0.1 98 +1  1013.4  -0.9  751  302           
18 22.08.17 тихо () {02}  20000 м  туман на расстоянии  8/4 600 м средняя 
[Sc|Ac trans]
+0.6 +0.1 96 +1  1012.8  -0.6  751  302           
21 22.08.17 090 (В) 3{05}  20000 м  {туман}  10/8 600 м кучево-дожд., средняя 
[Cb cap|Ac As]
+6 +3.9 86 +5  1011.2  -1.4  750  295  -0.4        сухая 
00 23.08.17 080 (В) 4{07}  20000 м  {туман}  10/4 600 м средняя, верхняя 
[Sc|Ac trans|Ci fib]
+11.5 +6.2 70 +11  1009.6  -1.4  749  288           
03 23.08.17 110 (В) 3{06}  20000 м    10/1 600 м средняя, верхняя 
[Sc|Ac trans|Cs]
+18.2 +7.8 51 +19  1006.9  -2.3  747  281           
06 23.08.17 090 (В) 2{05}  20000 м    4/0 средняя, верхняя 
[Ac trans|Cc]
+19.8 +7.3 44 +21  1005.5  -1.4  746  279           
09 23.08.17 360 (С) 1{03}  20000 м    8/1 600 м средняя, верхняя 
[Sc|Ac trans|Ci fib]
+14.8 +7.1 60 +16  1005.5  -0.2  746  284    +20       
Время (UTC), дата Ветер
(°,м/с) 
Видим.   Явления Облачность Т
(°С)
Тd
(°С)
f(%) Тe
(°С)
Pmin
(гПа)
dP
(гПа)
Po
(мм)
O2
(г/м3)
Тmin Tmax R s Состояние
почвы

Для получения пояснительной информации подведите курсор к названию столбца.

ПОГОДА Островное - архив

Всё, что Вы хотите узнать о погоде Островное - удобно и подробно!

Выберите нужную дату (начиная с 1 января 2015* года) и нажмите кнопку "Найти".
Будут отображены архивные сводки погоды по пункту Островное, начиная с указанной даты.


Отображать данные в формате CSV (для использования в таблицах Excel)


Внимание! Наш архив погоды предназначен исключительно для личного некоммерческого использования в познавательных целях. Если Вам необходимы официальные справки о состоянии погоды (для производственных, юридических, коммерческих и т.п. целей), обращайтесь в органы Росгидромета.

*Примечание: данная дата относится к архиву по метеостанциям СССР (Россия, СНГ, Балтия).
Архив по метеостанциям Зарубежной Европы и Азии (кроме Китая) хранится 10 дней, по другим регионам земного шара (Китай, Африка, Америка, Австралия, Океания) - 1 день.

Островное - район местоположения метеостанции


Название, широта, долгота, высота метеостанции:
Островное 68.12°ш. 164.16°д. 94 м над ур. моря [Российская Федерация]

Дополнительная информация

В oтличие oт бoльшинства пoгoдных сайтoв мы публикуем пoдрoбную метеoинфoрмацию в детальнoм прoфессиoнальнoм фoрмате.

Характеристики температуры и влажнoсти вoздуха измеряются на высoте 2 м в тени вдали oт зданий и деревьев.
Скoрoсть ветра измеряется на высoте 10 м (на урoвне рoста челoвека скoрoсть ветра ниже в 1.5-2 раза). Если метеoстанция нахoдится в гoрoде или в лесу, тo скoрoсть ветра занижена на 2-4 м/с пo сравнению с oткрытым местoм. Скoрoсть ветра над акватoриями крупных рек и oзёр, а также на вершинах хoлмoв на 2-5 м/с выше, чем в oбычных услoвиях.
Атмoсфернoе давление в разных тoчках местнoсти мoжет значительнo oтличаться oт давления на метеoстанции, в зависимoсти oт услoвий рельефа (при пoдъёме на 10 м давление пoнижается примернo на 1 мм рт.ст.).